EFTP Weather Reports


time (UTC)temp
C
wind
direction
speed
KPH
gust
KPH
rain 1hr
cm
rain 24hr
cm
rain mn
cm
humidity
%
barometer
mb
20260508104731 12 352 11.3 20.9 0.00 0.00 0.00 23 1026.7
20260508100730 12 315 17.7 27.4 0.00 0.00 0.00 26 1026.6
20260508094730 11 314 19.3 27.4 0.00 0.00 0.00 24 1026.5
20260508092730 11 351 16.1 25.7 0.00 0.00 0.00 25 1026.5
20260508090730 11 337 16.1 32.2 0.00 0.00 0.00 32 1026.5
20260508084731 11 308 14.5 29.0 0.00 0.00 0.00 32 1026.7
20260508082730 10 296 14.5 22.5 0.00 0.00 0.00 34 1026.7
20260508080731 10 332 11.3 19.3 0.00 0.00 0.00 36 1026.6
20260508074730 10 274 12.9 19.3 0.00 0.00 0.00 39 1026.4
20260508070731 9 325 8.0 16.1 0.00 0.00 0.00 41 1026.2
20260508064730 8 302 9.7 16.1 0.00 0.00 0.00 41 1026.0
20260508062730 8 315 6.4 12.9 0.00 0.00 0.00 44 1025.9
20260508060730 7 335 6.4 11.3 0.00 0.00 0.00 45 1025.7
20260508054730 6 304 8.0 14.5 0.00 0.00 0.00 51 1025.7
20260508052731 6 303 9.7 14.5 0.00 0.00 0.00 52 1025.5
20260508050730 5 302 8.0 11.3 0.00 0.00 0.00 55 1025.3
20260508044731 5 326 6.4 9.7 0.00 0.00 0.00 60 1025.1
20260508042730 3 258 1.6 4.8 0.00 0.00 0.00 68 1025.0
20260508040730 3 239 1.6 3.2 0.00 0.00 0.00 70 1024.9
20260508034730 0 131 3.2 3.2 0.00 0.00 0.00 83 1024.9
20260508032730 -1 109 1.6 1.6 0.00 0.00 0.00 84 1024.8
20260508030730 -1 200 1.6 3.2 0.00 0.00 0.00 83 1024.5
20260508024729 -2 123 1.6 3.2 0.00 0.00 0.00 87 1024.4
20260508022729 -1 146 1.6 3.2 0.00 0.00 0.00 86 1024.1
20260508020729 -2 143 1.6 3.2 0.00 0.00 0.00 87 1024.0
20260508014729 -1 186 1.6 1.6 0.00 0.00 0.00 84 1023.8
20260508012729 -1 136 1.6 1.6 0.00 0.00 0.00 86 1023.5
20260508010729 -1 0.0 1.6 0.00 0.00 0.00 82 1023.4
20260508004729 -1 139 1.6 1.6 0.00 0.00 0.00 81 1023.1
20260508002729 -1 0.0 3.2 0.00 0.00 0.00 79 1022.9
20260508000730 0 0.0 1.6 0.00 0.00 0.00 77 1022.7
20260507234730 0 341 1.6 1.6 0.00 0.00 0.00 76 1022.6
20260507232729 0 84 1.6 3.2 0.00 0.00 0.00 74 1022.3
20260507230729 0 43 1.6 4.8 0.00 0.00 0.00 67 1022.1
20260507224728 0 358 3.2 4.8 0.00 0.00 0.00 70 1021.9
20260507222729 1 340 1.6 3.2 0.00 0.00 0.00 64 1021.6
20260507220728 2 331 3.2 6.4 0.00 0.00 0.00 57 1021.4
20260507214729 4 317 6.4 9.7 0.00 0.00 0.00 50 1021.1
20260507212728 5 320 8.0 12.9 0.00 0.00 0.00 48 1020.7
20260507210728 5 321 8.0 14.5 0.00 0.00 0.00 46 1020.4
20260507204729 5 310 6.4 9.7 0.00 0.00 0.00 45 1020.1
20260507202728 6 304 6.4 12.9 0.00 0.00 0.00 43 1019.8
20260507200729 6 309 6.4 11.3 0.00 0.00 0.00 44 1019.4
20260507194728 6 319 8.0 14.5 0.00 0.00 0.00 43 1019.1
20260507192728 6 305 8.0 11.3 0.00 0.00 0.00 46 1018.8
20260507190728 7 300 8.0 14.5 0.00 0.00 0.00 45 1018.6
20260507184728 7 297 8.0 11.3 0.00 0.00 0.00 43 1018.3
20260507182727 8 309 11.3 19.3 0.00 0.00 0.00 41 1018.1
20260507180727 8 302 17.7 27.4 0.00 0.00 0.00 39 1017.8
20260507174728 9 323 16.1 27.4 0.00 0.00 0.00 37 1017.6
20260507172727 9 301 16.1 24.1 0.00 0.00 0.00 34 1017.4
20260507170727 10 280 17.7 27.4 0.00 0.00 0.00 33 1017.2
20260507164728 10 284 17.7 27.4 0.00 0.00 0.00 31 1017.1
20260507162728 10 285 22.5 32.2 0.00 0.00 0.00 32 1016.9
20260507160727 10 288 22.5 33.8 0.00 0.00 0.00 29 1016.8
20260507154727 11 293 19.3 33.8 0.00 0.00 0.00 31 1016.5
20260507152726 11 294 19.3 32.2 0.00 0.00 0.00 27 1016.5
20260507150729 11 284 20.9 33.8 0.00 0.00 0.00 27 1016.4
20260507144728 11 289 24.1 33.8 0.00 0.00 0.00 27 1016.3
20260507142728 12 296 20.9 33.8 0.00 0.00 0.00 24 1016.0
20260507140727 12 288 19.3 29.0 0.00 0.00 0.00 24 1015.9
20260507134728 12 315 11.3 22.5 0.00 0.00 0.00 24 1015.9
20260507132726 12 300 12.9 19.3 0.00 0.00 0.00 24 1015.9
20260507124726 12 284 14.5 25.7 0.00 0.00 0.00 20 1015.9
20260507122726 11 267 11.3 25.7 0.00 0.00 0.00 20 1015.9
20260507120727 11 252 11.3 29.0 0.00 0.00 0.00 20 1015.8
20260507114727 11 242 9.7 19.3 0.00 0.00 0.00 20 1015.9
20260507112725 11 298 6.4 14.5 0.00 0.00 0.00 20 1016.0
20260507110726 11 309 14.5 20.9 0.00 0.00 0.00 22 1016.0